TimeCDT,TemperatureF,Dew PointF,Humidity,Sea Level PressureIn,VisibilityMPH,Wind Direction,Wind SpeedMPH,Gust SpeedMPH,PrecipitationIn,Events,Conditions,WindDirDegrees,DateUTC
12:15 AM,64.4,53.6,68,30.04,10.0,Calm,Calm,-,N/A,,Overcast,0,2013-07-25 05:15:00
12:35 AM,63.7,53.1,68,30.04,10.0,Calm,Calm,-,N/A,,Scattered Clouds,0,2013-07-25 05:35:00
12:55 AM,62.4,53.6,73,30.03,10.0,Calm,Calm,-,N/A,,Clear,0,2013-07-25 05:55:00
1:15 AM,61.7,53.6,75,30.03,10.0,Calm,Calm,-,N/A,,Scattered Clouds,0,2013-07-25 06:15:00
1:35 AM,61.2,53.6,76,30.03,10.0,Calm,Calm,-,N/A,,Scattered Clouds,0,2013-07-25 06:35:00
1:55 AM,60.4,53.4,78,30.03,10.0,South,3.5,-,N/A,,Clear,180,2013-07-25 06:55:00
2:15 AM,59.7,53.2,79,30.03,10.0,Calm,Calm,-,N/A,,Clear,0,2013-07-25 07:15:00
2:35 AM,59.9,53.6,80,30.02,10.0,Calm,Calm,-,N/A,,Scattered Clouds,0,2013-07-25 07:35:00
2:55 AM,59.4,53.8,82,30.03,10.0,Calm,Calm,-,N/A,,Overcast,0,2013-07-25 07:55:00
3:15 AM,59.4,54.0,82,30.03,10.0,Calm,Calm,-,N/A,,Overcast,0,2013-07-25 08:15:00
3:35 AM,58.8,53.6,83,30.03,10.0,Calm,Calm,-,N/A,,Scattered Clouds,0,2013-07-25 08:35:00
3:55 AM,58.6,53.6,83,30.03,10.0,Calm,Calm,-,N/A,,Clear,0,2013-07-25 08:55:00
4:15 AM,58.5,53.2,83,30.03,10.0,Calm,Calm,-,N/A,,Clear,0,2013-07-25 09:15:00
4:35 AM,58.1,53.4,84,30.03,10.0,SW,3.5,-,N/A,,Clear,220,2013-07-25 09:35:00
4:55 AM,57.9,53.2,84,30.03,10.0,Calm,Calm,-,N/A,,Clear,0,2013-07-25 09:55:00
5:15 AM,57.6,53.2,85,30.03,10.0,SSW,3.5,-,N/A,,Clear,210,2013-07-25 10:15:00
5:35 AM,57.4,53.1,85,30.03,10.0,Calm,Calm,-,N/A,,Clear,0,2013-07-25 10:35:00
5:55 AM,57.6,53.2,85,30.03,10.0,Calm,Calm,-,N/A,,Clear,0,2013-07-25 10:55:00
6:15 AM,57.9,53.4,85,30.04,10.0,Calm,Calm,-,N/A,,Clear,0,2013-07-25 11:15:00
6:35 AM,58.8,53.6,83,30.04,10.0,Calm,Calm,-,N/A,,Clear,0,2013-07-25 11:35:00
6:55 AM,59.9,54.0,81,30.04,10.0,SW,3.5,-,N/A,,Clear,230,2013-07-25 11:55:00
7:15 AM,60.8,54.5,80,30.05,10.0,SSW,4.6,-,N/A,,Clear,210,2013-07-25 12:15:00
7:35 AM,62.4,54.9,76,30.05,10.0,SSW,4.6,-,N/A,,Clear,200,2013-07-25 12:35:00
7:55 AM,63.9,55.4,74,30.04,10.0,South,4.6,-,N/A,,Scattered Clouds,190,2013-07-25 12:55:00
8:15 AM,65.5,56.1,72,30.04,10.0,South,4.6,-,N/A,,Scattered Clouds,180,2013-07-25 13:15:00
8:35 AM,67.1,56.8,70,30.04,10.0,SSW,3.5,-,N/A,,Clear,200,2013-07-25 13:35:00
8:55 AM,68.9,56.8,65,30.04,10.0,SW,6.9,-,N/A,,Clear,220,2013-07-25 13:55:00
9:15 AM,70.9,57.0,61,30.04,10.0,SW,8.1,-,N/A,,Clear,230,2013-07-25 14:15:00
9:35 AM,71.2,56.7,60,30.04,10.0,SSW,5.8,-,N/A,,Mostly Cloudy,210,2013-07-25 14:35:00
9:55 AM,73.0,57.4,58,30.03,10.0,SW,6.9,-,N/A,,Mostly Cloudy,230,2013-07-25 14:55:00
10:15 AM,74.8,57.9,55,30.03,10.0,SSW,8.1,-,N/A,,Scattered Clouds,210,2013-07-25 15:15:00
10:35 AM,75.2,57.0,53,30.03,10.0,South,6.9,-,N/A,,Clear,190,2013-07-25 15:35:00
10:55 AM,76.3,57.9,53,30.03,10.0,SSW,6.9,-,N/A,,Clear,200,2013-07-25 15:55:00
11:15 AM,76.3,57.2,52,30.03,10.0,SW,8.1,-,N/A,,Clear,220,2013-07-25 16:15:00
11:35 AM,77.2,58.3,52,30.02,10.0,South,6.9,-,N/A,,Clear,170,2013-07-25 16:35:00
11:55 AM,77.9,58.6,51,30.02,10.0,South,8.1,-,N/A,,Clear,180,2013-07-25 16:55:00
12:15 PM,77.2,58.5,52,30.01,10.0,SSW,8.1,-,N/A,,Mostly Cloudy,210,2013-07-25 17:15:00
12:35 PM,79.2,58.6,49,30.01,10.0,South,10.4,-,N/A,,Mostly Cloudy,170,2013-07-25 17:35:00
12:55 PM,79.3,59.4,50,30.00,10.0,South,10.4,18.4,N/A,,Mostly Cloudy,180,2013-07-25 17:55:00
1:15 PM,79.7,59.4,50,30.00,10.0,SW,9.2,-,N/A,,Scattered Clouds,220,2013-07-25 18:15:00
1:35 PM,78.4,58.1,50,30.00,10.0,SSW,9.2,16.1,N/A,,Mostly Cloudy,210,2013-07-25 18:35:00
1:55 PM,79.7,58.5,48,29.99,10.0,SSW,6.9,-,N/A,,Mostly Cloudy,210,2013-07-25 18:55:00
2:15 PM,79.9,59.2,49,29.98,10.0,South,8.1,-,N/A,,Mostly Cloudy,180,2013-07-25 19:15:00
2:35 PM,78.6,59.5,52,29.98,10.0,South,9.2,-,N/A,,Mostly Cloudy,190,2013-07-25 19:35:00
2:55 PM,78.4,59.5,52,29.97,10.0,South,8.1,-,N/A,,Mostly Cloudy,190,2013-07-25 19:55:00
3:15 PM,79.3,60.4,52,29.96,10.0,South,9.2,-,N/A,,Mostly Cloudy,170,2013-07-25 20:15:00
3:35 PM,79.5,60.4,52,29.96,10.0,SSW,9.2,-,N/A,,Mostly Cloudy,200,2013-07-25 20:35:00
3:55 PM,79.7,60.6,52,29.96,10.0,SSW,9.2,16.1,N/A,,Scattered Clouds,210,2013-07-25 20:55:00
4:15 PM,79.2,60.8,53,29.95,10.0,South,5.8,-,N/A,,Clear,190,2013-07-25 21:15:00
4:35 PM,80.6,60.8,51,29.94,10.0,South,10.4,-,N/A,,Clear,170,2013-07-25 21:35:00
4:55 PM,79.9,59.9,50,29.94,10.0,SSW,10.4,17.3,N/A,,Scattered Clouds,200,2013-07-25 21:55:00
5:15 PM,79.0,60.8,54,29.94,10.0,South,8.1,-,N/A,,Clear,180,2013-07-25 22:15:00
5:35 PM,77.9,61.2,56,29.94,10.0,South,5.8,-,N/A,,Clear,170,2013-07-25 22:35:00
5:55 PM,77.7,61.0,56,29.94,10.0,SSW,9.2,16.1,N/A,,Scattered Clouds,210,2013-07-25 22:55:00
6:15 PM,76.3,61.5,60,29.94,10.0,SSW,9.2,-,N/A,,Overcast,200,2013-07-25 23:15:00
6:35 PM,72.9,63.5,72,29.95,7.0,SSW,9.2,-,N/A,Rain,Rain,210,2013-07-25 23:35:00
6:55 PM,70.5,65.5,84,29.94,10.0,South,3.5,-,N/A,Rain,Light Rain,180,2013-07-25 23:55:00
7:15 PM,70.9,65.3,82,29.94,10.0,South,3.5,-,N/A,,Overcast,180,2013-07-26 00:15:00
7:35 PM,71.1,64.9,81,29.94,10.0,SSW,5.8,-,N/A,,Scattered Clouds,200,2013-07-26 00:35:00
7:55 PM,71.2,64.9,80,29.95,10.0,SW,13.8,19.6,N/A,,Mostly Cloudy,230,2013-07-26 00:55:00
8:15 PM,70.2,63.7,80,29.94,10.0,SW,8.1,-,N/A,,Scattered Clouds,230,2013-07-26 01:15:00
8:35 PM,69.1,64.4,85,29.93,10.0,WSW,4.6,-,N/A,,Scattered Clouds,240,2013-07-26 01:35:00
8:55 PM,68.9,64.9,87,29.94,10.0,WSW,5.8,-,N/A,,Overcast,240,2013-07-26 01:55:00
9:15 PM,68.9,65.3,88,29.94,10.0,SW,3.5,-,N/A,,Overcast,230,2013-07-26 02:15:00
9:35 PM,68.7,65.3,89,29.94,10.0,SSW,3.5,-,N/A,,Overcast,210,2013-07-26 02:35:00
9:55 PM,68.4,65.3,90,29.94,10.0,SSW,3.5,-,N/A,,Overcast,210,2013-07-26 02:55:00
10:15 PM,68.0,64.9,90,29.95,10.0,SSW,3.5,-,N/A,,Mostly Cloudy,210,2013-07-26 03:15:00
10:35 PM,67.6,64.9,91,29.96,10.0,South,3.5,-,N/A,,Mostly Cloudy,190,2013-07-26 03:35:00
10:55 PM,67.3,64.8,92,29.95,10.0,SW,3.5,-,N/A,,Overcast,230,2013-07-26 03:55:00
11:15 PM,67.5,63.7,88,29.96,10.0,SW,6.9,-,N/A,,Overcast,230,2013-07-26 04:15:00
11:35 PM,67.1,63.0,87,29.95,10.0,SW,4.6,-,N/A,,Overcast,230,2013-07-26 04:35:00
11:55 PM,67.1,63.0,87,29.95,10.0,SW,6.9,-,N/A,,Overcast,230,2013-07-26 04:55:00